Weather History for Wittering, United Kingdom

Change the Weather History Date:

Tuesday, January 1, 2013

  Actual Average Record
Temperature  
Mean Temperature 40 °F -  
Max Temperature 44 °F 42 °F 53 °F (2012)
Min Temperature 35 °F 34 °F 21 °F (1997)
Degree Days  
Heating Degree Days 26    
Moisture  
Dew Point 36 °F    
Average Humidity 82    
Maximum Humidity 93    
Minimum Humidity 64    
Precipitation  
Precipitation 0.00 in - - ()
Sea Level Pressure  
Sea Level Pressure 29.71 in    
Wind  
Wind Speed 12 mph ()    
Max Wind Speed 23 mph    
Max Gust Speed -    
Visibility 7.6 miles    
Events      
Averages and records for this station are not official NWS values.
T = Trace of Precipitation, MM = Missing Value Source: Averaged Metar Reports

Daily Weather History Graph

Daily Weather History Graph

Search for Another Location

Airport:

Trip Planner

Search our weather history database for the weather conditions in past years. The results will help you decide how hot, cold, wet, or windy it might be!

Date:

Astronomy

Jan. 01, 2013 Rise Set
Actual Time 8:13 AM GMT 3:58 PM GMT
Civil Twilight 7:31 AM GMT 4:39 PM GMT
Nautical Twilight 6:47 AM GMT 5:23 PM GMT
Astronomical Twilight 6:05 AM GMT 6:05 PM GMT
Moon 8:51 PM GMT (1/1) 9:44 AM GMT (1/1)
Length of Visible Light 9h 07m
Length of Day
7h 45m
Waning Gibbous, 85% of the Moon is Illuminated
Jan 1
Waning Gibbous
Jan 5
Last Quarter
Jan 11
New
Jan 18
First Quarter
Jan 27
Full

Hourly Weather History & Observations

Time (GMT) Temp. Windchill Dew Point Humidity Pressure Visibility Wind Dir Wind Speed Gust Speed Precip Events Conditions
12:50 AM 42.8 °F 38.0 °F 41.0 °F 93% 29.47 in 6.2 mi West 8.1 mph - N/A   Mostly Cloudy
1:50 AM 42.8 °F 37.5 °F 37.4 °F 81% 29.47 in 6.2 mi WNW 9.2 mph - N/A   Scattered Clouds
2:50 AM 41 °F - 37 °F 80% 29.53 in 25 mi WNW 12.7 mph - -  
2:50 AM 41.0 °F 33.9 °F 37.4 °F 87% 29.50 in 6.2 mi WNW 12.7 mph - N/A   Unknown
3:50 AM 39.2 °F 31.6 °F 35.6 °F 87% 29.50 in 6.2 mi West 12.7 mph - N/A   Unknown
4:50 AM 39.2 °F 32.5 °F 35.6 °F 87% 29.53 in 6.2 mi WSW 10.4 mph - N/A   Mostly Cloudy
5:50 AM 38 °F - 35 °F 84% 29.57 in 22 mi WSW 10.4 mph - -  
5:50 AM 39.2 °F 32.5 °F 35.6 °F 87% 29.56 in 6.2 mi WSW 10.4 mph - N/A   Partly Cloudy
6:50 AM 37.4 °F 29.3 °F 33.8 °F 87% 29.56 in 6.2 mi WSW 12.7 mph - N/A   Unknown
7:50 AM 37.4 °F 30.3 °F 33.8 °F 87% 29.59 in 6.2 mi WSW 10.4 mph - N/A   Unknown
8:50 AM 36 °F - 33 °F 85% 29.65 in 17 mi WSW 9.2 mph - -  
8:50 AM 35.6 °F 28.6 °F 33.8 °F 93% 29.62 in 6.2 mi WSW 9.2 mph - N/A   Unknown
9:50 AM 39.2 °F 31.2 °F 33.8 °F 81% 29.65 in 6.2 mi WSW 13.8 mph - N/A   Unknown
10:50 AM 41.0 °F 33.5 °F 35.6 °F 81% 29.65 in 6.2 mi WSW 13.8 mph - N/A   Unknown
11:50 AM 42 °F - 36 °F 72% 29.70 in 25 mi West 19.6 mph - -  
11:50 AM 42.8 °F 34.3 °F 35.6 °F 76% 29.68 in 6.2 mi West 19.6 mph - N/A   Unknown
12:50 PM 44.6 °F 36.1 °F 37.4 °F 76% 29.71 in 6.2 mi West 21.9 mph - N/A   Partly Cloudy
1:50 PM 42.8 °F 35.1 °F 35.6 °F 76% 29.71 in 6.2 mi West 16.1 mph - N/A   Scattered Clouds
2:50 PM 43 °F - 35 °F 64% 29.76 in 22 mi West 15.0 mph - -   Scattered Clouds
2:50 PM 42.8 °F 35.4 °F 35.6 °F 76% 29.74 in 6.2 mi West 15.0 mph - N/A   Partly Cloudy
3:50 PM 41.0 °F 33.9 °F 33.8 °F 76% 29.74 in 6.2 mi WSW 12.7 mph - N/A   Partly Cloudy
4:50 PM 41.0 °F 31.1 °F 35.6 °F 81% 29.77 in 6.2 mi West 23.0 mph - N/A   Unknown
5:50 PM 41 °F - 36 °F 74% 29.83 in 18 mi West 17.3 mph - -   Scattered Clouds
5:50 PM 41.0 °F 32.5 °F 35.6 °F 81% 29.80 in 6.2 mi West 17.3 mph - N/A   Partly Cloudy
6:50 PM 41.0 °F 32.8 °F 37.4 °F 87% 29.83 in 6.2 mi West 16.1 mph - N/A   Mostly Cloudy
7:50 PM 42.8 °F 35.8 °F 37.4 °F 81% 29.86 in 6.2 mi West 13.8 mph - N/A   Mostly Cloudy
8:50 PM 42 °F - 38 °F 79% 29.92 in 16 mi West 17.3 mph - -   Mostly Cloudy
8:50 PM 42.8 °F 34.8 °F 37.4 °F 81% 29.89 in 6.2 mi West 17.3 mph - N/A   Mostly Cloudy
9:50 PM 41.0 °F 33.1 °F 37.4 °F 87% 29.92 in 6.2 mi West 15.0 mph - N/A   Mostly Cloudy
10:50 PM 41.0 °F 33.1 °F 37.4 °F 87% 29.95 in 6.2 mi West 15.0 mph - N/A   Partly Cloudy
11:50 PM 40 °F - 38 °F 88% 30.00 in 12 mi West 12.7 mph - -  
11:50 PM 41.0 °F 33.9 °F 37.4 °F 87% 29.98 in 6.2 mi West 12.7 mph - N/A   Unknown